When you browse on this site, cookies collect data to enhance your experience and personalize the content and advertising you see.
Visit our Privacy Policy to learn more. By continuing to use the site, you agree to this use of cookies and data.
  • In Lithuania
  • List of Countries
  • For 7 days
  • Water Temperature
  • Weather Map
  • Weather Widgets
  • user-avatar
    Login

    Hourly Weather Quito

    Today, 24 August, Saturday

    Time Temperature Precipitation Wind Pressure Humidity
    00:00 +12°C° 0 mm 1 mps 624 mmHg 45%
    01:00 +11°C° 0 mm 1 mps 624 mmHg 48%
    02:00 +10°C° 0 mm 1 mps 623 mmHg 49%
    03:00 +10°C° 0 mm 1 mps 623 mmHg 50%
    04:00 +9°C° 0 mm 1 mps 622 mmHg 51%
    05:00 +10°C° 0 mm 1 mps 623 mmHg 48%
    06:00 +11°C° 0 mm 1 mps 624 mmHg 46%
    07:00 +12°C° 0 mm 1 mps 625 mmHg 43%
    08:00 +15°C° 0 mm 2 mps 626 mmHg 36%
    09:00 +18°C° 0 mm 3 mps 626 mmHg 29%
    10:00 +22°C° 0 mm 4 mps 627 mmHg 22%
    11:00 +23°C° 0 mm 4 mps 627 mmHg 20%
    12:00 +26°C° 0 mm 4 mps 626 mmHg 17%
    13:00 +27°C° 0 mm 3 mps 626 mmHg 15%
    14:00 +28°C° 0 mm 3 mps 625 mmHg 14%
    15:00 +28°C° 0 mm 3 mps 625 mmHg 14%
    16:00 +28°C° 0 mm 3 mps 624 mmHg 14%
    17:00 +24°C° 0 mm 2 mps 624 mmHg 18%
    18:00 +20°C° 0 mm 2 mps 623 mmHg 22%
    19:00 +18°C° 0 mm 1 mps 623 mmHg 26%
    20:00 +16°C° 0 mm 1 mps 623 mmHg 26%
    21:00 +15°C° 0 mm 1 mps 623 mmHg 27%
    22:00 +15°C° 0 mm 1 mps 623 mmHg 27%
    23:00 +14°C° 0 mm 1 mps 623 mmHg 29%

    Tomorrow, 25 August, Sunday

    Time Temperature Precipitation Wind Pressure Humidity
    00:00 +13°C° 0 mm 1 mps 623 mmHg 31%
    01:00 +12°C° 0 mm 1 mps 622 mmHg 33%
    02:00 +12°C° 0 mm 1 mps 622 mmHg 35%
    03:00 +11°C° 0 mm 1 mps 622 mmHg 36%
    04:00 +11°C° 0 mm 1 mps 622 mmHg 37%
    05:00 +12°C° 0 mm 1 mps 623 mmHg 34%
    06:00 +13°C° 0 mm 2 mps 623 mmHg 32%
    07:00 +13°C° 0 mm 2 mps 624 mmHg 30%
    08:00 +17°C° 0 mm 2 mps 625 mmHg 25%
    09:00 +21°C° 0 mm 3 mps 626 mmHg 20%
    10:00 +25°C° 0 mm 4 mps 626 mmHg 15%
    11:00 +27°C° 0 mm 3 mps 626 mmHg 14%
    12:00 +28°C° 0 mm 3 mps 626 mmHg 12%
    13:00 +30°C° 0 mm 2 mps 625 mmHg 11%
    14:00 +30°C° 0 mm 2 mps 625 mmHg 11%
    15:00 +29°C° 0 mm 2 mps 624 mmHg 10%
    16:00 +29°C° 0 mm 1 mps 624 mmHg 10%
    17:00 +26°C° 0 mm 1 mps 623 mmHg 12%
    18:00 +23°C° 0 mm 1 mps 623 mmHg 15%
    19:00 +20°C° 0 mm 1 mps 623 mmHg 17%
    20:00 +19°C° 0 mm 1 mps 623 mmHg 18%
    21:00 +18°C° 0 mm 1 mps 623 mmHg 19%
    22:00 +15°C° 0 mm 0 mps 622 mmHg 20%
    23:00 +16°C° 0 mm 1 mps 622 mmHg 21%

    Day after tomorrow, 26 August, Monday

    Time Temperature Precipitation Wind Pressure Humidity
    00:00 +15°C° 0 mm 1 mps 622 mmHg 21%
    01:00 +15°C° 0 mm 1 mps 622 mmHg 22%
    02:00 +14°C° 0 mm 1 mps 622 mmHg 24%
    03:00 +13°C° 0 mm 1 mps 622 mmHg 27%
    04:00 +12°C° 0 mm 1 mps 621 mmHg 29%
    05:00 +13°C° 0 mm 1 mps 622 mmHg 28%
    06:00 +13°C° 0 mm 1 mps 623 mmHg 28%
    07:00 +14°C° 0 mm 1 mps 624 mmHg 27%
    08:00 +18°C° 0 mm 2 mps 625 mmHg 23%
    09:00 +23°C° 0 mm 2 mps 626 mmHg 20%
    10:00 +27°C° 0 mm 3 mps 626 mmHg 16%
    11:00 +28°C° 0 mm 3 mps 626 mmHg 15%
    12:00 +29°C° 0 mm 3 mps 626 mmHg 14%
    13:00 +31°C° 0 mm 3 mps 625 mmHg 12%
    14:00 +31°C° 0 mm 2 mps 625 mmHg 12%
    15:00 +31°C° 0 mm 2 mps 624 mmHg 12%
    16:00 +31°C° 0 mm 2 mps 624 mmHg 12%
    17:00 +27°C° 0 mm 2 mps 623 mmHg 15%
    18:00 +24°C° 0 mm 1 mps 623 mmHg 19%
    19:00 +21°C° 0 mm 1 mps 622 mmHg 22%
    20:00 +21°C° 0 mm 1 mps 623 mmHg 22%
    21:00 +20°C° 0 mm 1 mps 623 mmHg 22%
    22:00 +20°C° 0 mm 1 mps 624 mmHg 22%
    23:00 +19°C° 0 mm 1 mps 623 mmHg 23%

    27 August, Tuesday

    Time Temperature Precipitation Wind Pressure Humidity
    00:00 +18°C° 0 mm 1 mps 623 mmHg 24%
    01:00 +17°C° 0 mm 2 mps 623 mmHg 26%
    02:00 +16°C° 0 mm 2 mps 623 mmHg 27%
    03:00 +15°C° 0 mm 2 mps 623 mmHg 29%
    04:00 +14°C° 0 mm 2 mps 622 mmHg 31%
    05:00 +14°C° 0 mm 2 mps 623 mmHg 31%
    06:00 +15°C° 0 mm 2 mps 623 mmHg 30%
    07:00 +15°C° 0 mm 2 mps 624 mmHg 30%
    08:00 +20°C° 0 mm 2 mps 625 mmHg 24%
    09:00 +25°C° 0 mm 2 mps 626 mmHg 19%
    10:00 +29°C° 0 mm 2 mps 627 mmHg 14%
    11:00 +30°C° 0 mm 2 mps 626 mmHg 14%
    12:00 +31°C° 0 mm 3 mps 626 mmHg 14%
    13:00 +33°C° 0 mm 3 mps 625 mmHg 13%
    14:00 +33°C° 0 mm 3 mps 625 mmHg 13%
    15:00 +33°C° 0 mm 3 mps 624 mmHg 14%
    16:00 +31°C° 0 mm 3 mps 624 mmHg 14%
    17:00 +28°C° 0 mm 2 mps 623 mmHg 18%
    18:00 +25°C° 0 mm 1 mps 622 mmHg 22%
    19:00 +22°C° 0 mm 1 mps 622 mmHg 26%
    20:00 +21°C° 0 mm 1 mps 622 mmHg 27%
    21:00 +20°C° 0 mm 1 mps 622 mmHg 29%
    22:00 +18°C° 0 mm 0 mps 623 mmHg 31%
    23:00 +19°C° 0 mm 1 mps 623 mmHg 33%

    28 August, Wednesday

    Time Temperature Precipitation Wind Pressure Humidity
    00:00 +19°C° 0 mm 1 mps 622 mmHg 35%
    01:00 +18°C° 0 mm 1 mps 622 mmHg 36%
    02:00 +18°C° 0 mm 1 mps 622 mmHg 37%
    03:00 +16°C° 0 mm 1 mps 622 mmHg 37%
    04:00 +16°C° 0 mm 1 mps 622 mmHg 38%
    05:00 +18°C° 0 mm 1 mps 622 mmHg 36%
    06:00 +18°C° 0 mm 1 mps 623 mmHg 34%
    07:00 +19°C° 0 mm 1 mps 623 mmHg 32%
    08:00 +22°C° 0 mm 1 mps 624 mmHg 28%
    09:00 +26°C° 0 mm 1 mps 625 mmHg 25%
    10:00 +30°C° 0 mm 2 mps 626 mmHg 21%
    11:00 +30°C° 0 mm 2 mps 626 mmHg 21%
    12:00 +30°C° 0 mm 2 mps 625 mmHg 21%
    13:00 +31°C° 0 mm 2 mps 624 mmHg 21%
    14:00 +30°C° 0 mm 2 mps 624 mmHg 21%
    15:00 +30°C° 0 mm 1 mps 623 mmHg 22%
    16:00 +30°C° 0 mm 1 mps 623 mmHg 23%
    17:00 +27°C° 0 mm 1 mps 623 mmHg 27%
    18:00 +25°C° 0 mm 1 mps 622 mmHg 31%
    19:00 +23°C° 0 mm 1 mps 622 mmHg 35%
    20:00 +22°C° 0 mm 1 mps 622 mmHg 36%
    21:00 +21°C° 0 mm 1 mps 622 mmHg 38%
    22:00 +19°C° 0 mm 0 mps 622 mmHg 39%
    23:00 +18°C° 0 mm 0 mps 622 mmHg 41%

    29 August, Thursday

    Time Temperature Precipitation Wind Pressure Humidity
    00:00 +17°C° 0 mm 0 mps 622 mmHg 43%
    01:00 +17°C° 0 mm 0 mps 621 mmHg 45%
    02:00 +16°C° 0 mm 0 mps 621 mmHg 46%
    03:00 +18°C° 0 mm 1 mps 621 mmHg 48%
    04:00 +16°C° 0 mm 1 mps 621 mmHg 49%
    05:00 +18°C° 0 mm 1 mps 621 mmHg 47%
    06:00 +19°C° 0 mm 1 mps 622 mmHg 45%
    07:00 +19°C° 0 mm 2 mps 623 mmHg 43%
    08:00 +24°C° 0 mm 1 mps 624 mmHg 35%
    09:00 +29°C° 0 mm 1 mps 626 mmHg 28%
    10:00 +34°C° 0 mm 1 mps 627 mmHg 20%
    11:00 +32°C° 0 mm 1 mps 626 mmHg 21%
    12:00 +31°C° 0 mm 2 mps 625 mmHg 22%
    13:00 +30°C° 0 mm 2 mps 623 mmHg 23%
    14:00 +30°C° 0 mm 2 mps 623 mmHg 24%
    15:00 +29°C° 0 mm 2 mps 622 mmHg 25%
    16:00 +29°C° 0 mm 2 mps 622 mmHg 26%
    17:00 +27°C° 0 mm 1 mps 622 mmHg 29%
    18:00 +26°C° 0 mm 1 mps 622 mmHg 32%
    19:00 +24°C° 0 mm 1 mps 622 mmHg 34%
    20:00 +23°C° 0 mm 1 mps 622 mmHg 35%
    21:00 +21°C° 0 mm 0 mps 622 mmHg 36%
    22:00 +20°C° 0 mm 0 mps 622 mmHg 37%
    23:00 +19°C° 0 mm 0 mps 622 mmHg 39%
    Show more